Location: ????????
(55.6189°N, 38.3031°E)
Time: 08:20:18
(UTC+00:00)

Meteor 2-20 Rocket - Pass Details

Date: 15 November 2019
Orbit: 941 x 958 km, 82.5° (Epoch: 09 December)

Event Time Altitude Azimuth Distance (km) Brightness Sun altitude
Rises 02:16:20 0° 347° (NNW) 3,653 7.4 -22.8°
Reaches altitude 10° 02:18:51 10° 347° (NNW) 2,704 6.7 -22.4°
Maximum altitude 02:25:04 88° 261° (W) 969 4.4 -21.6°
Drops below altitude 10° 02:31:14 10° 172° (S) 2,687 6.9 -20.7°
Sets 02:33:43 0° 172° (S) 3,628 7.6 -20.3°
